星链-34806 (STARLINK-34806)

导读

STARLINK-34806是美国SpaceX公司星链(Starlink)星座的成员卫星,于2025年7月31日发射入轨。星链星座旨在通过低轨卫星群为全球提供宽带互联网服务,尤其覆盖基础设施匮乏地区。该卫星延续星链技术特征,助力提升星座网络容量与覆盖能力,可为用户提供百兆级下载速率、低时延网络,支持视频通话、在线娱乐等多种应用场景,是SpaceX推进全球卫星互联网组网的重要一环。

Basic Information
目录编号:
65065
目录名称:
STARLINK-34806
国际标识:
2025-165K
轨道中心:
EARTH
卫星名称:
星链-34806
卫星全名:
星链-34806 (STARLINK-34806)
卫星状态:
在轨 (已飞行409 天)
发射日期:
2025-07-31 UTC
国别 :
美国 (US)
星等 :
--
This satellite is enrolled in the Space Conjunction Data Service (SCDS) and the current flight risk assessment level is: No High Risk
Orbit Information
数据来源 国际轨道数据
星历时间: 2026-09-12T16:00:02+0800
18小时前
查看轨道信息
半长轴: 6892.959km
偏心率: 0.0001602
轨道倾角: 97.284°
近地点辐角 88.833°
升交点赤经 326.678°
平近点角 301.354°
近地点: 513.717km
远地点: 515.927km
周期: 94.922分钟
每日圈数: 15.170303
Detailed Information
固有亮度:
5
最大亮度:
2.5
卫星平台:
Starlink V1.0
覆盖范围:
全球
运营商:
太空探索技术公司
运营商所在国:
美国
制造商(研发单位):
太空探索技术公司
制造商所在国:
美国
使用方式:
暂无
Satellite Introduction
Starlink 计划是 SpaceX 推出的全球卫星互联网项目,通过发射低轨道卫星,为全球尤其是偏远地区提供高速、低延迟的互联网服务。自 2019 年起,Starlink 已部署数千颗卫星,旨在缩小全球数字鸿沟,推动互联网普及。该项目还为军事、航空等行业提供通信支持,带来广泛经济效益。
2D Orbit Map
3D Orbit Map
Orbit Altitude Analysis Chart
Orbit Inclination Analysis Chart
Orbit Comprehensive Analysis Chart
View Comprehensive Chart
Conjunction Data List
Event ID Objects TCA Miss Dist (km) Collision Risk Probability Collision Risk Index (CRI) Action
CDM_260914-154606-506506-679121
2026-09-14T
15:46:54+0000
2.493 km
极远距离
1.719291E-6 低风险 0.4
CDM_260915-002105-918406-506521
2026-09-15T
00:21:14+0000
2.705 km
极远距离
1.45795E-6 低风险 0.38
CDM_260915-002305-705506-506521
2026-09-15T
00:23:55+0000
2.838 km
极远距离
1.393032E-6 低风险 0.38
CDM_260914-211706-506506-686021
2026-09-14T
21:17:07+0000
2.422 km
极远距离
1.244042E-6 低风险 0.37
Miss Distance Evolution Trend with All Objects
Collision Probability Evolution Trend with All Objects